Time,TemperatureF,DewpointF,PressureIn,WindDirection,WindDirectionDegrees,WindSpeedMPH,WindSpeedGustMPH,Humidity,HourlyPrecipIn,Conditions,Clouds,dailyrainin,SoftwareType,DateUTC
2013-12-14 00:10:00,23.1,18.0,30.25,NNE,22,6.0,17.0,82,0.00,,,0.00,weatherlink.com 1.10,2013-12-14 05:10:00,
2013-12-14 00:25:00,22.2,18.0,30.25,NE,44,7.0,18.0,82,0.00,,,0.00,weatherlink.com 1.10,2013-12-14 05:25:00,
2013-12-14 00:40:00,21.7,17.0,30.25,NE,49,4.0,18.0,81,0.00,,,0.00,weatherlink.com 1.10,2013-12-14 05:40:00,
2013-12-14 00:55:00,21.5,17.0,30.26,NE,52,7.0,12.0,81,0.00,,,0.00,weatherlink.com 1.10,2013-12-14 05:55:00,
2013-12-14 01:10:00,21.1,16.0,30.26,NNE,20,2.0,15.0,80,0.00,,,0.00,weatherlink.com 1.10,2013-12-14 06:10:00,
2013-12-14 01:25:00,20.6,17.0,30.27,North,11,7.0,13.0,84,0.00,,,0.00,weatherlink.com 1.10,2013-12-14 06:25:00,
2013-12-14 01:40:00,20.1,17.0,30.26,North,355,5.0,15.0,86,0.00,,,0.00,weatherlink.com 1.10,2013-12-14 06:40:00,
2013-12-14 01:55:00,19.8,17.0,30.26,North,5,4.0,12.0,87,0.00,,,0.00,weatherlink.com 1.10,2013-12-14 06:55:00,
2013-12-14 02:10:00,19.8,17.0,30.26,NNE,22,8.0,12.0,87,0.00,,,0.00,weatherlink.com 1.10,2013-12-14 07:10:00,
2013-12-14 02:25:00,19.7,17.0,30.26,ENE,65,4.0,13.0,87,0.00,,,0.00,weatherlink.com 1.10,2013-12-14 07:25:00,
2013-12-14 02:40:00,19.8,16.0,30.26,NE,44,9.0,11.0,86,0.00,,,0.00,weatherlink.com 1.10,2013-12-14 07:40:00,
2013-12-14 02:55:00,19.8,16.0,30.25,NE,38,5.0,13.0,86,0.00,,,0.00,weatherlink.com 1.10,2013-12-14 07:55:00,
2013-12-14 03:10:00,19.7,17.0,30.25,North,5,3.0,12.0,87,0.00,,,0.00,weatherlink.com 1.10,2013-12-14 08:10:00,
2013-12-14 03:25:00,19.5,17.0,30.25,NNE,22,4.0,13.0,88,0.00,,,0.00,weatherlink.com 1.10,2013-12-14 08:25:00,
2013-12-14 03:40:00,19.5,17.0,30.24,NNW,345,4.0,15.0,88,0.00,,,0.00,weatherlink.com 1.10,2013-12-14 08:40:00,
2013-12-14 03:55:00,19.4,16.0,30.24,NE,51,4.0,12.0,87,0.00,,,0.00,weatherlink.com 1.10,2013-12-14 08:55:00,
2013-12-14 04:10:00,19.4,16.0,30.23,NNW,327,4.0,15.0,87,0.00,,,0.00,weatherlink.com 1.10,2013-12-14 09:10:00,
2013-12-14 04:25:00,19.3,16.0,30.22,NNW,343,9.0,15.0,88,0.00,,,0.00,weatherlink.com 1.10,2013-12-14 09:25:00,
2013-12-14 04:40:00,19.2,17.0,30.22,NNE,21,3.0,13.0,89,0.00,,,0.00,weatherlink.com 1.10,2013-12-14 09:40:00,
2013-12-14 04:55:00,19.2,17.0,30.21,North,9,5.0,15.0,89,0.00,,,0.00,weatherlink.com 1.10,2013-12-14 09:55:00,
2013-12-14 05:11:00,19.0,17.0,30.21,NNE,24,5.0,14.0,90,0.00,,,0.00,weatherlink.com 1.10,2013-12-14 10:11:00,
2013-12-14 05:26:00,18.8,16.0,30.20,North,355,11.0,12.0,90,0.00,,,0.00,weatherlink.com 1.10,2013-12-14 10:26:00,
2013-12-14 05:41:00,18.8,17.0,30.20,NE,40,5.0,16.0,91,0.00,,,0.00,weatherlink.com 1.10,2013-12-14 10:41:00,
2013-12-14 05:56:00,18.8,17.0,30.19,NNW,338,10.0,14.0,91,0.00,,,0.00,weatherlink.com 1.10,2013-12-14 10:56:00,
2013-12-14 06:11:00,18.8,17.0,30.19,NNW,342,3.0,16.0,91,0.00,,,0.00,weatherlink.com 1.10,2013-12-14 11:11:00,
2013-12-14 06:26:00,18.8,17.0,30.20,NNE,22,2.0,13.0,91,0.00,,,0.00,weatherlink.com 1.10,2013-12-14 11:26:00,
2013-12-14 06:41:00,18.8,17.0,30.20,North,360,12.0,15.0,91,0.00,,,0.00,weatherlink.com 1.10,2013-12-14 11:41:00,
2013-12-14 06:56:00,19.0,17.0,30.19,NNE,28,10.0,20.0,91,0.00,,,0.00,weatherlink.com 1.10,2013-12-14 11:56:00,
2013-12-14 07:11:00,19.1,17.0,30.19,North,5,5.0,18.0,91,0.00,,,0.00,weatherlink.com 1.10,2013-12-14 12:11:00,
2013-12-14 07:26:00,19.1,17.0,30.18,NE,53,4.0,17.0,91,0.00,,,0.00,weatherlink.com 1.10,2013-12-14 12:26:00,
2013-12-14 07:41:00,19.2,17.0,30.19,NE,56,10.0,16.0,91,0.00,,,0.00,weatherlink.com 1.10,2013-12-14 12:41:00,
2013-12-14 07:56:00,19.1,17.0,30.18,North,5,8.0,17.0,91,0.00,,,0.00,weatherlink.com 1.10,2013-12-14 12:56:00,
2013-12-14 08:11:00,19.1,17.0,30.17,NNW,347,5.0,19.0,91,0.00,,,0.00,weatherlink.com 1.10,2013-12-14 13:11:00,
2013-12-14 08:26:00,19.3,17.0,30.17,North,9,4.0,16.0,91,0.00,,,0.00,weatherlink.com 1.10,2013-12-14 13:26:00,
2013-12-14 08:41:00,19.2,17.0,30.16,NNE,26,10.0,18.0,90,0.00,,,0.00,weatherlink.com 1.10,2013-12-14 13:41:00,
2013-12-14 08:56:00,19.2,17.0,30.16,NNE,22,9.0,18.0,90,0.00,,,0.00,weatherlink.com 1.10,2013-12-14 13:56:00,
2013-12-14 09:11:00,19.1,17.0,30.16,North,355,8.0,16.0,90,0.00,,,0.00,weatherlink.com 1.10,2013-12-14 14:11:00,
2013-12-14 09:26:00,19.0,17.0,30.15,NNE,22,5.0,15.0,91,0.00,,,0.00,weatherlink.com 1.10,2013-12-14 14:26:00,
2013-12-14 09:41:00,19.0,17.0,30.14,NNW,342,6.0,17.0,91,0.00,,,0.00,weatherlink.com 1.10,2013-12-14 14:41:00,
2013-12-14 09:57:00,19.1,17.0,30.13,North,355,4.0,15.0,91,0.00,,,0.00,weatherlink.com 1.10,2013-12-14 14:57:00,
2013-12-14 10:12:00,19.2,17.0,30.12,NNE,18,7.0,15.0,91,0.00,,,0.00,weatherlink.com 1.10,2013-12-14 15:12:00,
2013-12-14 10:27:00,19.3,17.0,30.12,NE,42,11.0,17.0,91,0.00,,,0.00,weatherlink.com 1.10,2013-12-14 15:27:00,
2013-12-14 10:42:00,19.5,17.0,30.11,NNE,26,6.0,16.0,90,0.00,,,0.00,weatherlink.com 1.10,2013-12-14 15:42:00,
2013-12-14 10:57:00,19.7,17.0,30.10,NE,36,4.0,17.0,90,0.00,,,0.00,weatherlink.com 1.10,2013-12-14 15:57:00,
2013-12-14 11:12:00,19.8,17.0,30.10,NE,44,6.0,15.0,90,0.00,,,0.00,weatherlink.com 1.10,2013-12-14 16:12:00,
2013-12-14 11:27:00,19.8,17.0,30.08,North,355,11.0,17.0,90,0.00,,,0.00,weatherlink.com 1.10,2013-12-14 16:27:00,
2013-12-14 11:42:00,19.8,17.0,30.06,NE,48,7.0,19.0,90,0.00,,,0.00,weatherlink.com 1.10,2013-12-14 16:42:00,
2013-12-14 11:57:00,19.8,18.0,30.05,North,360,3.0,15.0,91,0.00,,,0.00,weatherlink.com 1.10,2013-12-14 16:57:00,
2013-12-14 12:12:00,19.9,18.0,30.04,North,360,4.0,16.0,91,0.00,,,0.00,weatherlink.com 1.10,2013-12-14 17:12:00,
2013-12-14 12:27:00,19.8,18.0,30.02,NNE,13,9.0,20.0,91,0.00,,,0.00,weatherlink.com 1.10,2013-12-14 17:27:00,
2013-12-14 12:42:00,19.9,18.0,30.00,NNW,344,10.0,17.0,91,0.00,,,0.00,weatherlink.com 1.10,2013-12-14 17:42:00,
2013-12-14 12:57:00,20.0,18.0,29.99,NNE,26,10.0,17.0,91,0.00,,,0.00,weatherlink.com 1.10,2013-12-14 17:57:00,
2013-12-14 13:12:00,20.0,18.0,29.97,NNE,30,5.0,16.0,90,0.00,,,0.00,weatherlink.com 1.10,2013-12-14 18:12:00,
2013-12-14 13:27:00,20.0,18.0,29.96,North,10,5.0,16.0,91,0.00,,,0.00,weatherlink.com 1.10,2013-12-14 18:27:00,
2013-12-14 13:42:00,20.1,18.0,29.95,North,355,8.0,17.0,91,0.00,,,0.00,weatherlink.com 1.10,2013-12-14 18:42:00,
2013-12-14 13:57:00,20.2,18.0,29.93,North,360,4.0,16.0,91,0.00,,,0.00,weatherlink.com 1.10,2013-12-14 18:57:00,
2013-12-14 14:12:00,20.4,18.0,29.93,NNW,342,14.0,16.0,91,0.00,,,0.00,weatherlink.com 1.10,2013-12-14 19:12:00,
2013-12-14 14:27:00,20.6,18.0,29.92,NNE,13,4.0,14.0,91,0.00,,,0.00,weatherlink.com 1.10,2013-12-14 19:27:00,
2013-12-14 14:42:00,20.6,18.0,29.91,North,351,3.0,14.0,91,0.00,,,0.00,weatherlink.com 1.10,2013-12-14 19:42:00,
2013-12-14 14:57:00,20.6,18.0,29.90,NNE,22,15.0,15.0,91,0.00,,,0.00,weatherlink.com 1.10,2013-12-14 19:57:00,
2013-12-14 15:12:00,20.6,18.0,29.90,NNE,24,1.0,12.0,91,0.00,,,0.00,weatherlink.com 1.10,2013-12-14 20:12:00,
2013-12-14 15:28:00,20.6,18.0,29.90,NNW,336,1.0,13.0,91,0.00,,,0.00,weatherlink.com 1.10,2013-12-14 20:28:00,
2013-12-14 15:43:00,20.4,18.0,29.89,NE,48,7.0,14.0,91,0.00,,,0.00,weatherlink.com 1.10,2013-12-14 20:43:00,
2013-12-14 15:58:00,20.3,18.0,29.89,North,355,6.0,12.0,91,0.00,,,0.00,weatherlink.com 1.10,2013-12-14 20:58:00,
2013-12-14 16:13:00,20.2,18.0,29.89,NNW,339,2.0,11.0,91,0.00,,,0.00,weatherlink.com 1.10,2013-12-14 21:13:00,
2013-12-14 16:28:00,20.0,18.0,29.89,NNE,28,9.0,14.0,91,0.00,,,0.00,weatherlink.com 1.10,2013-12-14 21:28:00,
2013-12-14 16:43:00,19.7,18.0,29.89,NNE,26,6.0,10.0,92,0.00,,,0.00,weatherlink.com 1.10,2013-12-14 21:43:00,
2013-12-14 16:58:00,19.6,18.0,29.88,NW,313,2.0,13.0,92,0.00,,,0.00,weatherlink.com 1.10,2013-12-14 21:58:00,
2013-12-14 17:14:00,19.5,18.0,29.88,NNE,26,11.0,12.0,92,0.00,,,0.00,weatherlink.com 1.10,2013-12-14 22:14:00,
2013-12-14 17:29:00,19.5,18.0,29.88,NW,323,10.0,14.0,92,0.00,,,0.00,weatherlink.com 1.10,2013-12-14 22:29:00,
2013-12-14 17:44:00,19.4,18.0,29.87,NNE,15,2.0,13.0,92,0.00,,,0.00,weatherlink.com 1.10,2013-12-14 22:44:00,
2013-12-14 17:59:00,19.4,18.0,29.86,North,350,5.0,11.0,92,0.00,,,0.00,weatherlink.com 1.10,2013-12-14 22:59:00,
2013-12-14 18:14:00,19.4,18.0,29.86,NNW,339,1.0,14.0,92,0.00,,,0.00,weatherlink.com 1.10,2013-12-14 23:14:00,
2013-12-14 18:29:00,19.5,18.0,29.85,NW,319,3.0,12.0,92,0.00,,,0.00,weatherlink.com 1.10,2013-12-14 23:29:00,
2013-12-14 18:44:00,19.6,18.0,29.85,WNW,296,4.0,13.0,92,0.00,,,0.00,weatherlink.com 1.10,2013-12-14 23:44:00,
2013-12-14 18:59:00,19.8,18.0,29.86,WNW,299,4.0,12.0,92,0.00,,,0.00,weatherlink.com 1.10,2013-12-14 23:59:00,
2013-12-14 19:14:00,20.0,18.0,29.85,NW,313,5.0,13.0,92,0.00,,,0.00,weatherlink.com 1.10,2013-12-15 00:14:00,
2013-12-14 19:29:00,20.2,18.0,29.84,NNE,28,1.0,11.0,92,0.00,,,0.00,weatherlink.com 1.10,2013-12-15 00:29:00,
2013-12-14 19:44:00,20.4,19.0,29.84,WNW,298,5.0,11.0,93,0.00,,,0.00,weatherlink.com 1.10,2013-12-15 00:44:00,
2013-12-14 19:59:00,20.6,19.0,29.83,NNW,338,3.0,11.0,93,0.00,,,0.00,weatherlink.com 1.10,2013-12-15 00:59:00,
2013-12-14 20:14:00,20.8,19.0,29.84,NW,318,8.0,10.0,93,0.00,,,0.00,weatherlink.com 1.10,2013-12-15 01:14:00,
2013-12-14 20:29:00,20.9,19.0,29.83,NW,317,3.0,12.0,92,0.00,,,0.00,weatherlink.com 1.10,2013-12-15 01:29:00,
2013-12-14 20:44:00,21.1,19.0,29.84,NW,321,5.0,11.0,92,0.00,,,0.00,weatherlink.com 1.10,2013-12-15 01:44:00,
2013-12-14 20:59:00,21.2,19.0,29.83,North,355,3.0,10.0,92,0.00,,,0.00,weatherlink.com 1.10,2013-12-15 01:59:00,
2013-12-14 21:14:00,21.2,19.0,29.83,NW,304,4.0,9.0,92,0.00,,,0.00,weatherlink.com 1.10,2013-12-15 02:14:00,
2013-12-14 21:29:00,21.3,19.0,29.83,WNW,290,7.0,10.0,92,0.00,,,0.00,weatherlink.com 1.10,2013-12-15 02:29:00,
2013-12-14 21:44:00,21.3,19.0,29.83,NW,317,9.0,9.0,91,0.00,,,0.00,weatherlink.com 1.10,2013-12-15 02:44:00,
2013-12-14 21:59:00,21.4,20.0,29.83,WNW,282,7.0,10.0,92,0.00,,,0.00,weatherlink.com 1.10,2013-12-15 02:59:00,
2013-12-14 22:14:00,21.4,20.0,29.83,West,281,7.0,12.0,92,0.00,,,0.00,weatherlink.com 1.10,2013-12-15 03:14:00,
2013-12-14 22:29:00,21.4,20.0,29.84,West,262,9.0,11.0,92,0.00,,,0.00,weatherlink.com 1.10,2013-12-15 03:29:00,
2013-12-14 22:44:00,21.4,19.0,29.84,NW,311,4.0,11.0,91,0.00,,,0.00,weatherlink.com 1.10,2013-12-15 03:44:00,
2013-12-14 22:59:00,21.2,19.0,29.84,West,265,7.0,12.0,92,0.00,,,0.00,weatherlink.com 1.10,2013-12-15 03:59:00,
2013-12-14 23:14:00,20.9,19.0,29.84,West,274,6.0,10.0,92,0.00,,,0.00,weatherlink.com 1.10,2013-12-15 04:14:00,
2013-12-14 23:29:00,20.5,19.0,29.83,WNW,288,7.0,9.0,92,0.00,,,0.00,weatherlink.com 1.10,2013-12-15 04:29:00,
2013-12-14 23:44:00,19.9,18.0,29.82,West,279,4.0,8.0,92,0.00,,,0.00,weatherlink.com 1.10,2013-12-15 04:44:00,
2013-12-14 23:59:00,19.3,17.0,29.83,West,268,3.0,7.0,92,0.00,,,0.00,weatherlink.com 1.10,2013-12-15 04:59:00,